Regional Weather Roundup
Issued by NWS

Home | Current Version | Previous Version | Graphics & Text | Print | Product List | Glossary On
Versions: 1 2 3 4 5 6 7 8 9 10 11 12 13 14 15 16 17 18 19 20 21 22 23 24 25 26 27 28 29 30 31 32 33 34 35 36 37 38 39 40 41 42 43 44 45 46 47 48 49 50
000
ASUS43 KLOT 020221
RWRIL

ILLINOIS REGIONAL WEATHER ROUNDUP
NATIONAL WEATHER SERVICE CHICAGO/ROMEOVILLE IL
900 PM CDT SAT AUG 01 2015

NOTE: "FAIR" INDICATES FEW OR NO CLOUDS BELOW 12,000 FEET WITH NO
SIGNIFICANT WEATHER AND/OR OBSTRUCTIONS TO VISIBILITY.

* THESE STATIONS ARE NOT UNDER NWS QUALITY CONTROL. THEY ALSO MAY NOT
  REPORT WEATHER SUCH AS PRECIPITATION OR FOG.

ILZ001-002-007-009-015-016-024-020300-
NORTHWEST ILLINOIS

CITY           SKY/WX    TMP DP  RH WIND       PRES   REMARKS
MOLINE         MOCLDY    77  68  73 S3        29.91S
STERLING*      MOCLDY    73  66  78 CALM      29.89S
SAVANNA*       MOCLDY    77  67  72 SW6       29.90S
$$

ILZ003-004-008-010-011-017-018-020300-
NORTH CENTRAL ILLINOIS

CITY           SKY/WX    TMP DP  RH WIND       PRES   REMARKS
ROCKFORD       PTCLDY    74  65  73 S6        29.91S
FREEPORT*      PTCLDY    72  67  85 SW7       29.92F
ROCHELLE*      MOCLDY    71  67  85 SW6       29.92S
DE KALB*       MOCLDY    75  65  71 W9        29.92S
PERU*          MOCLDY    76  66  71 SW7       29.93S
$$

ILZ005-006-012>014-019>023-020300-
NORTHEAST ILLINOIS

CITY           SKY/WX    TMP DP  RH WIND       PRES   REMARKS
CHICAGO-OHARE  MOCLDY    79  62  56 W10       29.90R HX  80
CHICAGO-MIDWAY MOCLDY    81  61  50 SW8       29.90R HX  82
AURORA         MOCLDY    75  64  68 SW7       29.92R
LANSING*       MOCLDY    77  61  59 SW8       29.92S
JOLIET*        MOCLDY    79  65  63 SW5       29.92R HX  80
WAUKEGAN       CLEAR     77  65  66 VRB3      29.88R
DUPAGE AIRPORT MOCLDY    76  64  66 SW9       29.91R
KANKAKEE*      MOCLDY    72  67  84 CALM      29.94S
WHEELING       PTCLDY    80  61  52 SW6       29.90R HX  81
MORRIS*        MOCLDY    74  65  72 W6        29.92R
ROMEOVILLE*    MOCLDY    77  62  59 SW7       29.92R
NORTHERLY ISL    N/A     81  59  47 SW7         N/A  HX  81
$$

LMZ740>746-020300-
SOUTHERN LAKE MICHIGAN

STATION/POSITION SKY/WX   TEMP    WIND        PRES    VSBY  WAVE
                          AIR SEA DIR/SP/G                  HT/PER
                          (F)     (DEG/KT/KT) (MB)    (MI)  (FT/S)
HARRISON CRIB              81     240/ 16/ 19   N/A
BURNHAM HARBOR             81     260/  8/ 14   N/A
CALUMET HARBOR             80     230/  6/ 11   N/A
BURNS HARBOR               81     220/ 13/ 19 1012.9S
MICHIGAN CITY              78     190/ 14/ 18   N/A
MICHIGAN CITY 6N           78 74  240/ 12/ 16   N/A           2
ST. JOSEPH                 76 74  260/  8/ 10   N/A           1/ 4
$$

ILZ025>027-034>036-040-047-049-050-058-095>099-020300-
WEST-CENTRAL ILLINOIS

CITY           SKY/WX    TMP DP  RH WIND       PRES   REMARKS
QUINCY         PTCLDY    79  71  76 SE6       29.94F HX  82
GALESBURG*     MOCLDY    73  69  87 CALM      29.94S
MACOMB*        MOCLDY    73  71  92 S6        29.96F
JACKSONVILLE*  PTCLDY    76  69  80 S3        29.95F
PITTSFIELD*    PTCLDY    76  71  85 S3        29.97S
$$

ILZ028>032-037-038-041>044-048-051>054-059>061-020300-
CENTRAL ILLINOIS

CITY           SKY/WX    TMP DP  RH WIND       PRES   REMARKS
PONTIAC        PTCLDY    73  69  87 CALM      29.95S
BLOOMINGTON    MOCLDY    77  64  63 SW9       29.97S
DECATUR        PTCLDY    75  62  64 SW6       29.97S
PEORIA         MOCLDY    79  64  60 W3        29.94F HX  81
LACON*         MOCLDY    75  65  71 SW3       29.93S
LINCOLN*       MOCLDY    76  64  67 CALM      29.95S
SPRINGFIELD    PTCLDY    77  65  66 SW5       29.96S
TAYLORVILLE    PTCLDY    70  66  88 S3        29.97S
$$

ILZ033-039-045-046-055>057-062-063-020300-
EAST-CENTRAL ILLINOIS

CITY           SKY/WX    TMP DP  RH WIND       PRES   REMARKS
CHAMPAIGN      PTCLDY    70  65  84 SW6       29.97S
DANVILLE*      CLEAR     67  65  96 CALM      29.94S
RANTOUL*       PTCLDY    73  68  82 SW5       29.96S
MATTOON        PTCLDY    74  63  68 SW3       29.97S
PARIS*         CLEAR     69  65  90 SW3       29.99R
$$

ILZ079-100>102-020300-
SOUTHWEST ILLINOIS

CITY           SKY/WX    TMP DP  RH WIND       PRES   REMARKS
ALTON          CLEAR     73  70  88 CALM      29.97S
BELLEVILLE     CLOUDY    78  72  81 E2        29.96R HX  80
CAHOKIA*       CLOUDY    80  69  69 S5        29.96S HX  83
SPARTA*        MOCLDY    78  70  76 CALM      29.98S HX  80
$$

ILZ064>066-069>071-074>076-080>082-084>086-088>090-092>094-020300-
SOUTH-CENTRAL ILLINOIS

CITY           SKY/WX    TMP DP  RH WIND       PRES   REMARKS
CARBONDALE     PTCLDY    76  71  85 CALM      29.97S
CAIRO*         CLEAR     76  73  91 CALM      29.97R
EFFINGHAM*     PTCLDY    72  65  78 CALM      29.99S
MARION         PTCLDY    75  68  78 CALM      29.99S
MT. VERNON     MOCLDY    70  63  78 CALM      29.99R
CENTRALIA*     MOCLDY    71  67  86 CALM      29.98S
SALEM*         MOCLDY    72  68  86 CALM      29.98S
METROPOLIS*    PTCLDY    76  74  92 CALM      29.99R
$$

ILZ067-068-072-073-078-083-087-091-020300-
SOUTHEAST ILLINOIS

CITY           SKY/WX    TMP DP  RH WIND       PRES   REMARKS
LAWRENCEVILLE  PTCLDY    72  65  78 SW3       29.98S
FLORA*         PTCLDY    70  66  88 CALM      29.99R
FAIRFIELD*     PTCLDY    72  66  82 S3        29.97R
HARRISBURG*    MOCLDY    74  70  88 CALM      29.99S
ROBINSON*      PTCLDY    68  65  90 CALM      29.98S
CARMI*         PTCLDY    71  65  80 CALM      29.97S
$$

ABBREVIATIONS USED IN REMARKS
   TC - TEMPERATURE IN CELSIUS
  WCI - WIND CHILL INDEX
   HX - HEAT INDEX
  VSB - VISIBILITY
$$



USA.gov is the U.S. government's official web portal to all federal, state and local government web resources and services.